period_start,C,m1,H,J0,J1,J2,J3,J4,J5,JA,JB,JC,JD,JJ,JK,JN,#
2013-08-26 00:00:55,0.01,0.20,0.00,25.06,28.20,29.80,6.03,29.71,1010.50,2047.00,3396.13,3302.09,3568.82,351.22,320.91,33.22,0000 0000 0000 0000 000000
2013-08-26 00:01:56,0.00,0.20,0.00,25.04,28.20,29.79,5.98,29.92,1010.54,2047.00,3396.16,3302.13,3568.88,350.44,320.41,33.23,0000 0000 0000 0000 000000
2013-08-26 00:02:56,-0.01,0.20,0.00,25.06,28.20,29.80,5.77,29.63,1010.49,2047.00,3396.30,3302.19,3568.93,349.32,319.16,33.24,0000 0000 0000 0000 000000
2013-08-26 00:03:56,-0.05,0.20,0.00,25.08,28.20,29.79,5.73,29.50,1010.49,2047.00,3396.31,3302.20,3568.93,349.63,319.43,33.24,0000 0000 0000 0000 000000
2013-08-26 00:04:56,0.00,0.20,0.00,25.12,28.20,29.80,5.89,29.58,1010.47,2047.00,3396.18,3302.17,3568.90,349.78,319.54,33.25,0000 0000 0000 0000 000000
2013-08-26 00:05:57,0.03,0.20,0.00,25.14,28.20,29.87,6.06,29.75,1010.44,2047.00,3396.26,3302.14,3568.93,351.42,320.99,33.25,0000 0000 0000 0000 000000
2013-08-26 00:06:57,-0.01,0.20,0.00,25.08,28.21,29.86,5.83,29.63,1010.44,2047.00,3396.17,3302.11,3568.91,349.86,319.63,33.26,0000 0000 0000 0000 000000
2013-08-26 00:07:57,0.01,0.20,0.00,25.03,28.21,29.82,6.03,29.88,1010.41,2047.00,3396.10,3302.09,3568.78,350.30,320.07,33.27,0000 0000 0000 0000 000000
2013-08-26 00:08:57,0.03,0.20,0.00,24.99,28.21,29.80,6.05,29.75,1010.41,2047.00,3396.05,3302.06,3568.72,350.15,319.47,33.27,0000 0000 0000 0000 000000
2013-08-26 00:09:58,0.01,0.20,0.00,24.96,28.22,29.75,6.08,29.83,1010.44,2047.00,3396.03,3302.03,3568.43,350.60,320.40,33.28,0000 0000 0000 0000 000000
2013-08-26 00:10:58,0.05,0.20,0.00,25.00,28.22,29.75,5.67,29.67,1010.45,2047.00,3396.02,3302.04,3568.33,349.24,319.53,33.28,0000 0000 0000 0000 000000
2013-08-26 00:11:58,0.00,0.20,0.00,25.03,28.22,29.71,5.70,29.50,1010.43,2047.00,3396.02,3302.04,3568.25,349.80,319.60,33.29,0000 0000 0000 0000 000000
2013-08-26 00:12:58,0.01,0.20,0.00,25.00,28.22,29.72,5.65,29.67,1010.41,2047.00,3396.02,3302.02,3568.17,348.94,320.07,33.29,0000 0000 0000 0000 000000
2013-08-26 00:13:58,0.01,0.20,0.00,24.97,28.22,29.73,5.96,29.67,1010.38,2047.00,3396.01,3302.01,3568.11,349.77,319.63,33.30,0000 0000 0000 0000 000000
2013-08-26 00:14:59,0.00,0.20,0.00,25.01,28.22,29.77,5.57,29.67,1010.31,2047.00,3396.00,3302.01,3568.11,349.70,319.52,33.31,0000 0000 0000 0000 000000
2013-08-26 00:15:59,0.00,0.20,0.00,25.03,28.22,29.77,5.88,29.88,1010.35,2047.00,3396.00,3302.00,3568.11,349.68,319.48,33.31,0000 0000 0000 0000 000000
2013-08-26 00:16:59,0.00,0.20,0.00,25.09,28.22,29.79,5.73,29.63,1010.37,2047.00,3396.00,3302.01,3568.09,349.56,319.68,33.32,0000 0000 0000 0000 000000
2013-08-26 00:17:59,0.00,0.20,0.00,25.23,28.22,29.77,5.65,29.54,1010.34,2047.00,3396.00,3302.01,3568.07,349.43,319.04,33.32,0000 0000 0000 0000 000000
2013-08-26 00:19:00,-0.00,0.20,0.00,25.28,28.22,29.78,5.74,29.58,1010.41,2047.00,3396.00,3302.03,3568.11,349.49,319.07,33.33,0000 0000 0000 0000 000000
2013-08-26 00:20:00,-0.01,0.20,0.00,25.35,28.22,29.81,5.73,29.58,1010.39,2047.00,3396.00,3302.04,3568.11,349.73,319.05,33.34,0000 0000 0000 0000 000000
2013-08-26 00:21:00,0.00,0.20,0.00,25.43,28.22,29.84,5.72,29.67,1010.36,2047.00,3396.00,3302.01,3568.09,349.97,319.68,33.34,0000 0000 0000 0000 000000
2013-08-26 00:22:00,0.00,0.20,0.00,25.39,28.22,29.83,5.74,29.71,1010.29,2047.00,3396.00,3302.00,3568.08,349.88,319.26,33.35,0000 0000 0000 0000 000000
2013-08-26 00:23:01,0.00,0.20,0.00,25.29,28.22,29.84,5.87,29.88,1010.29,2047.00,3396.00,3302.00,3568.09,349.89,319.78,33.35,0000 0000 0000 0000 000000
2013-08-26 00:24:01,0.00,0.20,0.00,25.26,28.22,29.83,5.99,29.83,1010.29,2047.00,3396.00,3302.00,3568.06,350.92,320.43,33.36,0000 0000 0000 0000 000000
2013-08-26 00:25:01,0.00,0.20,0.00,25.25,28.22,29.82,5.85,29.79,1010.30,2047.00,3396.00,3302.00,3568.03,350.13,319.65,33.37,0000 0000 0000 0000 000000
2013-08-26 00:26:01,0.00,0.20,0.00,25.21,28.22,29.83,5.82,30.00,1010.30,2047.00,3396.00,3302.00,3568.02,349.52,319.13,33.37,0000 0000 0000 0000 000000
2013-08-26 00:27:01,0.00,0.20,0.00,25.21,28.22,29.81,5.74,29.92,1010.27,2047.00,3396.00,3302.00,3568.03,349.55,319.14,33.38,0000 0000 0000 0000 000000
2013-08-26 00:28:02,0.00,0.20,0.00,25.23,28.22,29.78,5.97,29.71,1010.28,2047.00,3396.00,3302.00,3568.04,350.62,319.49,33.38,0000 0000 0000 0000 000000
2013-08-26 00:29:02,0.00,0.20,0.00,25.20,28.22,29.82,5.95,29.88,1010.29,2047.00,3396.00,3302.01,3568.04,350.57,319.81,33.39,0000 0000 0000 0000 000000
2013-08-26 00:30:02,0.00,0.20,0.00,25.19,28.23,29.84,5.75,29.63,1010.29,2047.00,3396.00,3302.00,3568.02,349.35,319.00,33.39,0000 0000 0000 0000 000000
2013-08-26 00:31:02,0.00,0.20,0.00,25.16,28.23,29.82,5.98,29.79,1010.29,2047.00,3395.99,3302.00,3568.00,350.26,319.86,33.40,0000 0000 0000 0000 000000
2013-08-26 00:32:03,0.00,0.20,0.00,25.14,28.24,29.87,5.96,29.83,1010.33,2047.00,3395.98,3302.00,3568.00,351.47,320.80,33.41,0000 0000 0000 0000 000000
2013-08-26 00:33:03,0.00,0.20,0.00,25.14,28.24,29.84,5.90,29.71,1010.35,2047.00,3395.94,3302.00,3568.00,349.29,318.80,33.41,0000 0000 0000 0000 000000
2013-08-26 00:34:03,0.00,0.20,0.00,25.15,28.25,29.81,5.87,29.83,1010.34,2047.00,3395.91,3302.00,3568.00,349.78,319.46,33.42,0000 0000 0000 0000 000000
2013-08-26 00:35:03,0.00,0.20,0.00,25.14,28.25,29.83,5.85,29.75,1010.38,2047.00,3395.90,3301.99,3568.00,349.49,318.96,33.42,0000 0000 0000 0000 000000
2013-08-26 00:36:03,0.00,0.20,0.00,25.16,28.25,29.95,5.85,29.71,1010.39,2047.00,3395.77,3301.98,3568.00,350.49,320.22,33.43,0000 0000 0000 0000 000000
2013-08-26 00:37:03,0.02,0.20,0.00,25.17,28.25,29.94,5.91,29.58,1010.37,2047.00,3395.77,3301.98,3568.00,350.12,319.74,33.44,0000 0000 0000 0000 000000
2013-08-26 00:38:04,0.00,0.20,0.00,25.20,28.25,29.89,5.78,29.92,1010.31,2047.00,3395.78,3301.99,3568.00,349.90,319.49,33.44,0000 0000 0000 0000 000000
2013-08-26 00:39:04,0.00,0.20,0.00,25.16,28.25,29.86,5.73,29.75,1010.29,2047.00,3395.68,3301.98,3568.00,349.63,319.28,33.45,0000 0000 0000 0000 000000
2013-08-26 00:40:04,0.02,0.20,0.00,25.15,28.25,29.84,5.95,29.92,1010.29,2047.00,3395.70,3301.98,3568.00,350.01,319.64,33.45,0000 0000 0000 0000 000000
2013-08-26 00:41:04,0.01,0.20,0.00,25.09,28.25,29.86,5.92,29.96,1010.30,2047.00,3395.44,3301.98,3568.00,349.73,319.45,33.46,0000 0000 0000 0000 000000
2013-08-26 00:42:05,0.03,0.20,0.00,25.09,28.25,29.83,6.02,30.08,1010.30,2047.00,3395.24,3301.97,3568.00,350.34,320.01,33.46,0000 0000 0000 0000 000000
2013-08-26 00:43:05,0.02,0.20,0.00,25.12,28.25,29.82,5.61,30.00,1010.29,2047.00,3395.18,3301.97,3568.00,348.48,318.59,33.47,0000 0000 0000 0000 000000
2013-08-26 00:44:05,0.00,0.20,0.00,25.15,28.25,29.82,5.93,29.96,1010.27,2047.00,3395.08,3301.97,3567.99,350.13,319.75,33.48,0000 0000 0000 0000 000000
2013-08-26 00:45:05,0.01,0.20,0.00,25.16,28.25,29.80,5.88,29.96,1010.27,2047.00,3395.08,3301.97,3567.99,350.11,319.34,33.48,0000 0000 0000 0000 000000
2013-08-26 00:46:05,-0.01,0.20,0.00,25.23,28.25,29.82,5.88,29.88,1010.28,2047.00,3395.27,3301.99,3567.99,349.94,319.19,33.49,0000 0000 0000 0000 000000
2013-08-26 00:47:06,-0.02,0.20,0.00,25.26,28.25,29.81,5.98,29.79,1010.27,2047.00,3395.31,3301.99,3567.99,350.66,319.88,33.49,0000 0000 0000 0000 000000
2013-08-26 00:48:06,0.00,0.20,0.00,25.21,28.25,29.82,5.88,30.00,1010.27,2047.00,3395.19,3301.98,3567.99,350.11,319.65,33.50,0000 0000 0000 0000 000000
2013-08-26 00:49:06,0.02,0.20,0.00,25.20,28.25,29.84,5.83,29.75,1010.27,2047.00,3395.14,3301.97,3567.99,349.60,319.36,33.51,0000 0000 0000 0000 000000
2013-08-26 00:50:06,0.01,0.20,0.00,25.20,28.25,29.84,5.87,30.04,1010.27,2047.00,3395.13,3301.95,3567.98,350.02,319.68,33.51,0000 0000 0000 0000 000000
2013-08-26 00:51:07,0.00,0.20,0.00,25.24,28.26,29.82,5.84,30.00,1010.27,2047.00,3395.08,3301.96,3567.99,350.26,319.53,33.52,0000 0000 0000 0000 000000
2013-08-26 00:52:07,0.00,0.20,0.00,25.22,28.26,29.79,5.88,29.92,1010.27,2047.00,3395.05,3301.90,3567.99,349.19,318.80,33.52,0000 0000 0000 0000 000000
2013-08-26 00:53:07,0.02,0.20,0.00,25.17,28.27,29.84,5.92,30.13,1010.27,2047.00,3395.07,3301.91,3567.99,350.49,320.05,33.53,0000 0000 0000 0000 000000
2013-08-26 00:54:07,-0.00,0.20,0.00,25.18,28.27,29.84,5.81,29.92,1010.27,2047.00,3395.08,3301.92,3567.98,349.63,319.26,33.53,0000 0000 0000 0000 000000
2013-08-26 00:55:07,-0.01,0.20,0.00,25.21,28.27,29.83,5.94,29.92,1010.27,2047.00,3395.04,3301.86,3567.94,349.08,318.78,33.54,0000 0000 0000 0000 000000
2013-08-26 00:56:07,0.03,0.20,0.00,25.22,28.27,29.82,5.98,29.88,1010.27,2047.00,3395.01,3301.60,3567.86,350.10,319.45,33.55,0000 0000 0000 0000 000000
2013-08-26 00:57:08,0.05,0.20,0.00,25.24,28.27,29.82,5.94,30.04,1010.27,2047.00,3395.00,3301.58,3567.84,350.68,320.14,33.55,0000 0000 0000 0000 000000
2013-08-26 00:58:08,0.01,0.20,0.00,25.23,28.27,29.87,5.86,29.79,1010.27,2047.00,3395.00,3301.53,3567.81,349.40,319.28,33.56,0000 0000 0000 0000 000000
2013-08-26 00:59:08,0.01,0.20,0.00,25.23,28.27,29.84,5.97,29.83,1010.26,2047.00,3395.01,3301.51,3567.82,349.83,319.38,33.56,0000 0000 0000 0000 000000
2013-08-26 01:00:09,0.01,0.20,0.00,25.28,28.27,29.81,5.93,29.88,1010.25,2047.00,3395.00,3301.42,3567.77,349.36,318.90,33.57,0000 0000 0000 0000 000000
2013-08-26 01:01:09,0.02,0.20,0.00,25.33,28.27,29.86,5.78,29.92,1010.25,2047.00,3395.00,3301.48,3567.76,350.01,319.44,33.58,0000 0000 0000 0000 000000
2013-08-26 01:02:09,0.00,0.20,0.00,25.32,28.27,29.90,5.78,29.83,1010.26,2047.00,3395.00,3301.44,3567.74,349.76,319.21,33.58,0000 0000 0000 0000 000000
2013-08-26 01:03:09,-0.01,0.20,0.00,25.32,28.27,29.86,5.99,29.88,1010.24,2047.00,3395.01,3301.68,3567.83,350.42,319.81,33.59,0000 0000 0000 0000 000000
2013-08-26 01:04:10,-0.05,0.20,0.00,25.34,28.27,29.85,5.93,29.79,1010.25,2047.00,3395.00,3301.68,3567.78,350.81,319.92,33.59,0000 0000 0000 0000 000000
2013-08-26 01:05:10,0.02,0.20,0.00,25.39,28.27,29.83,5.99,30.00,1010.23,2047.00,3395.00,3301.47,3567.67,350.03,319.98,33.60,0000 0000 0000 0000 000000
2013-08-26 01:06:10,0.06,0.20,0.00,25.38,28.27,29.84,5.96,29.79,1010.26,2047.00,3395.00,3301.21,3567.43,349.88,319.25,33.60,0000 0000 0000 0000 000000
2013-08-26 01:07:11,0.07,0.20,0.00,25.31,28.27,29.88,5.88,29.63,1010.25,2047.00,3394.95,3301.09,3567.19,350.25,319.65,33.61,0000 0000 0000 0000 000000
2013-08-26 01:08:11,0.05,0.20,0.00,25.29,28.28,29.88,5.87,30.04,1010.27,2047.00,3394.81,3301.05,3567.08,349.63,319.06,33.62,0000 0000 0000 0000 000000
2013-08-26 01:09:11,0.04,0.20,0.00,25.31,28.28,29.87,5.98,29.88,1010.25,2047.00,3394.55,3301.02,3567.05,349.46,318.98,33.62,0000 0000 0000 0000 000000
2013-08-26 01:10:11,0.04,0.20,0.00,25.33,28.28,29.89,5.80,29.71,1010.19,2047.00,3394.32,3301.00,3567.02,349.86,319.28,33.63,0000 0000 0000 0000 000000
2013-08-26 01:11:12,0.03,0.20,0.00,25.29,28.29,29.85,5.85,29.96,1010.20,2047.00,3394.14,3301.00,3567.02,350.03,319.82,33.63,0000 0000 0000 0000 000000
2013-08-26 01:12:12,0.02,0.20,0.00,25.31,28.29,29.87,5.83,29.79,1010.19,2047.00,3394.08,3301.00,3567.00,349.76,319.81,33.64,0000 0000 0000 0000 000000
2013-08-26 01:13:12,0.01,0.20,0.00,25.25,28.30,29.87,5.78,29.83,1010.23,2047.00,3394.04,3301.00,3567.00,349.42,319.17,33.65,0000 0000 0000 0000 000000
2013-08-26 01:14:13,0.00,0.20,0.00,25.27,28.30,29.87,6.12,29.88,1010.21,2047.00,3394.03,3301.00,3567.00,350.36,320.06,33.65,0000 0000 0000 0000 000000
2013-08-26 01:15:13,0.00,0.20,0.00,25.28,28.30,29.86,5.79,29.88,1010.22,2047.00,3394.03,3301.00,3567.00,349.96,319.29,33.66,0000 0000 0000 0000 000000
2013-08-26 01:16:13,0.00,0.20,0.00,25.30,28.30,29.90,5.67,29.63,1010.22,2047.00,3394.00,3301.00,3567.00,349.64,319.59,33.66,0000 0000 0000 0000 000000
2013-08-26 01:17:13,0.00,0.20,0.00,25.32,28.30,29.91,5.88,29.63,1010.18,2047.00,3394.01,3301.00,3567.00,350.40,319.78,33.67,0000 0000 0000 0000 000000
2013-08-26 01:18:14,0.00,0.20,0.00,25.33,28.30,29.87,5.87,29.71,1010.10,2047.00,3394.01,3300.99,3566.99,350.73,320.04,33.68,0000 0000 0000 0000 000000
2013-08-26 01:19:14,0.00,0.20,0.00,25.32,28.30,29.92,5.85,29.92,1009.88,2047.00,3394.01,3300.99,3566.98,349.48,318.84,33.68,0000 0000 0000 0000 000000
2013-08-26 01:20:14,0.00,0.20,0.00,25.30,28.30,29.92,5.83,29.92,1009.84,2047.00,3394.00,3300.99,3566.97,349.69,319.05,33.69,0000 0000 0000 0000 000000
2013-08-26 01:21:15,0.00,0.20,0.00,25.39,28.30,29.90,5.90,29.83,1009.84,2047.00,3394.00,3300.98,3566.97,350.00,319.24,33.69,0000 0000 0000 0000 000000
2013-08-26 01:22:15,0.00,0.20,0.00,25.41,28.30,29.92,5.95,29.83,1010.00,2047.00,3394.00,3300.99,3566.99,350.09,319.51,33.70,0000 0000 0000 0000 000000
2013-08-26 01:23:15,0.00,0.20,0.00,25.42,28.30,29.93,5.86,29.92,1009.98,2047.00,3394.00,3300.99,3566.98,348.82,318.81,33.70,0000 0000 0000 0000 000000
2013-08-26 01:24:15,0.00,0.20,0.00,25.37,28.30,29.96,6.08,29.83,1009.85,2047.00,3394.00,3300.98,3566.94,350.89,320.23,33.71,0000 0000 0000 0000 000000
2013-08-26 01:25:16,0.00,0.20,0.00,25.37,28.30,29.92,6.03,30.04,1009.80,2047.00,3394.00,3300.96,3566.94,350.24,319.42,33.72,0000 0000 0000 0000 000000
2013-08-26 01:26:16,0.00,0.20,0.00,25.36,28.30,29.93,5.87,29.67,1009.81,2047.00,3394.00,3300.98,3566.91,350.65,320.05,33.72,0000 0000 0000 0000 000000
2013-08-26 01:27:16,0.00,0.20,0.00,25.39,28.31,29.94,5.88,29.75,1009.80,2047.00,3394.00,3300.97,3566.92,350.79,319.77,33.73,0000 0000 0000 0000 000000
2013-08-26 01:28:17,0.00,0.20,0.00,25.39,28.31,29.89,5.83,29.75,1009.79,2047.00,3394.00,3300.95,3566.87,349.74,319.15,33.73,0000 0000 0000 0000 000000
2013-08-26 01:29:17,0.00,0.20,0.00,25.37,28.32,29.95,6.09,29.96,1009.85,2047.00,3394.00,3300.96,3566.91,351.34,320.47,33.74,0000 0000 0000 0000 000000
2013-08-26 01:30:17,0.00,0.20,0.00,25.42,28.32,29.95,5.98,29.92,1009.86,2047.00,3393.98,3300.97,3566.88,350.37,319.55,33.75,0000 0000 0000 0000 000000
2013-08-26 01:31:17,0.00,0.20,0.00,25.46,28.32,29.91,6.03,30.00,1009.81,2047.00,3393.99,3300.95,3566.91,349.65,318.89,33.75,0000 0000 0000 0000 000000
2013-08-26 01:32:17,-0.00,0.20,0.00,25.43,28.32,29.98,5.84,29.92,1009.82,2047.00,3393.99,3300.98,3566.91,349.78,318.98,33.76,0000 0000 0000 0000 000000
2013-08-26 01:33:18,-0.01,0.20,0.00,25.48,28.32,29.98,5.73,29.88,1009.83,2047.00,3393.99,3300.99,3566.93,349.51,318.87,33.76,0000 0000 0000 0000 000000
2013-08-26 01:34:18,0.00,0.20,0.00,25.45,28.32,29.99,5.78,29.67,1009.82,2047.00,3393.99,3300.97,3566.92,349.93,318.91,33.77,0000 0000 0000 0000 000000
2013-08-26 01:35:18,0.00,0.20,0.00,25.41,28.32,29.96,5.74,29.75,1009.83,2047.00,3393.98,3300.94,3566.83,349.96,319.41,33.77,0000 0000 0000 0000 000000
2013-08-26 01:36:18,0.00,0.20,0.00,25.42,28.32,29.95,5.83,29.92,1009.80,2047.00,3393.97,3300.95,3566.68,350.05,319.24,33.78,0000 0000 0000 0000 000000
2013-08-26 01:37:19,0.02,0.20,0.00,25.46,28.32,29.96,6.03,29.92,1009.81,2047.00,3393.97,3300.92,3566.42,350.31,319.42,33.79,0000 0000 0000 0000 000000
2013-08-26 01:38:19,0.04,0.20,0.00,25.49,28.32,29.94,5.89,29.96,1009.79,2047.00,3393.93,3300.80,3566.27,350.53,319.59,33.79,0000 0000 0000 0000 000000
2013-08-26 01:39:19,0.04,0.20,0.00,25.52,28.32,29.94,5.77,29.88,1009.80,2047.00,3393.89,3300.67,3566.16,349.58,318.35,33.80,0000 0000 0000 0000 000000
2013-08-26 01:40:19,0.04,0.20,0.00,25.53,28.32,29.92,5.77,30.08,1009.82,2047.00,3393.80,3300.50,3566.11,349.63,318.74,33.80,0000 0000 0000 0000 000000
2013-08-26 01:41:20,0.06,0.20,0.00,25.58,28.33,29.94,5.95,30.13,1009.83,2047.00,3393.58,3300.32,3566.04,350.21,319.21,33.81,0000 0000 0000 0000 000000
2013-08-26 01:42:20,0.06,0.20,0.00,25.57,28.34,29.98,5.95,30.00,1009.79,2046.99,3393.42,3300.18,3566.01,350.27,319.42,33.82,0000 0000 0000 0000 000000
2013-08-26 01:43:20,0.03,0.20,0.00,25.55,28.34,30.02,5.81,29.75,1009.79,2046.96,3393.23,3300.09,3566.01,350.04,319.08,33.82,0000 0000 0000 0000 000000
2013-08-26 01:44:20,0.03,0.20,0.00,25.57,28.35,30.00,5.89,29.75,1009.82,2046.98,3393.13,3300.05,3566.01,350.34,319.40,33.83,0000 0000 0000 0000 000000
2013-08-26 01:45:21,0.01,0.20,0.00,25.53,28.35,30.00,5.73,29.75,1009.82,2046.97,3393.08,3300.06,3566.01,349.51,318.99,33.83,0000 0000 0000 0000 000000
2013-08-26 01:46:21,0.01,0.20,0.00,25.54,28.35,29.99,5.87,29.88,1009.82,2046.98,3393.05,3300.06,3566.00,350.30,319.33,33.84,0000 0000 0000 0000 000000
2013-08-26 01:47:21,0.02,0.20,0.00,25.53,28.35,30.00,5.81,29.58,1009.83,2046.99,3393.02,3300.04,3566.01,349.53,318.65,33.85,0000 0000 0000 0000 000000
2013-08-26 01:48:22,0.01,0.20,0.00,25.52,28.35,30.00,5.77,29.83,1009.81,2046.97,3393.01,3300.03,3566.01,349.81,318.55,33.85,0000 0000 0000 0000 000000
2013-08-26 01:49:22,-0.01,0.20,0.00,25.52,28.35,29.99,5.85,29.79,1009.87,2046.97,3393.02,3300.03,3566.00,350.18,319.27,33.86,0000 0000 0000 0000 000000
2013-08-26 01:50:22,0.00,0.20,0.00,25.54,28.35,30.00,5.75,29.67,1009.84,2046.98,3393.01,3300.01,3566.00,350.21,320.07,33.86,0000 0000 0000 0000 000000
2013-08-26 01:51:22,0.01,0.20,0.00,25.55,28.35,30.00,5.92,29.92,1009.83,2046.98,3393.00,3300.00,3566.00,350.10,319.15,33.87,0000 0000 0000 0000 000000
2013-08-26 01:52:23,0.00,0.20,0.00,25.56,28.35,30.05,6.06,30.04,1009.82,2046.98,3393.00,3300.01,3566.00,350.69,319.53,33.87,0000 0000 0000 0000 000000
2013-08-26 01:53:23,0.00,0.20,0.00,25.56,28.36,30.13,6.05,30.00,1009.80,2046.98,3393.00,3300.00,3566.00,350.47,319.31,33.88,0000 0000 0000 0000 000000
2013-08-26 01:54:23,0.00,0.20,0.00,25.57,28.36,30.18,5.75,29.83,1009.87,2046.97,3393.00,3300.00,3565.99,348.95,318.41,33.89,0000 0000 0000 0000 000000
2013-08-26 01:55:23,0.00,0.20,0.00,25.62,28.37,30.21,5.98,29.83,1009.88,2046.97,3393.00,3300.00,3565.98,350.63,319.56,33.89,0000 0000 0000 0000 000000
2013-08-26 01:56:24,0.00,0.20,0.00,25.61,28.37,30.24,5.85,29.67,1009.89,2046.98,3393.00,3300.00,3565.99,350.19,319.19,33.90,0000 0000 0000 0000 000000
2013-08-26 01:57:24,0.00,0.20,0.00,25.58,28.37,30.22,5.93,29.71,1009.87,2046.96,3393.00,3300.00,3565.99,349.36,318.10,33.90,0000 0000 0000 0000 000000
2013-08-26 01:58:24,-0.01,0.20,0.00,25.50,28.37,30.24,5.73,29.71,1009.91,2046.96,3393.00,3300.00,3565.98,349.13,318.33,33.91,0000 0000 0000 0000 000000
2013-08-26 01:59:25,-0.01,0.20,0.00,25.47,28.37,30.26,5.90,29.88,1009.89,2046.96,3393.00,3300.00,3565.97,350.36,319.49,33.92,0000 0000 0000 0000 000000
2013-08-26 02:00:25,0.01,0.20,0.00,25.43,28.37,30.26,5.96,29.88,1009.90,2046.98,3393.00,3300.00,3565.98,350.00,319.51,33.92,0000 0000 0000 0000 000000
2013-08-26 02:01:25,0.01,0.20,0.00,25.43,28.37,30.27,5.91,29.79,1009.85,2046.98,3393.00,3300.00,3565.97,350.68,319.89,33.93,0000 0000 0000 0000 000000
2013-08-26 02:02:25,0.01,0.20,0.00,25.47,28.37,30.29,5.79,29.75,1009.82,2046.98,3392.98,3300.00,3565.94,349.79,319.08,33.93,0000 0000 0000 0000 000000
2013-08-26 02:03:26,-0.01,0.20,0.00,25.54,28.38,30.27,5.88,29.58,1009.82,2046.96,3392.99,3300.00,3565.90,350.15,319.20,33.94,0000 0000 0000 0000 000000
2013-08-26 02:04:26,-0.00,0.20,0.00,25.56,28.39,30.23,5.87,29.75,1009.82,2046.96,3392.99,3300.00,3565.90,349.42,318.51,33.94,0000 0000 0000 0000 000000
2013-08-26 02:05:26,0.01,0.20,0.00,25.60,28.39,30.27,5.98,29.71,1009.82,2046.96,3392.96,3300.00,3565.91,351.17,320.07,33.95,0000 0000 0000 0000 000000
2013-08-26 02:06:27,0.00,0.20,0.00,25.61,28.40,30.28,5.89,29.79,1009.85,2046.96,3392.94,3300.00,3565.85,349.58,318.91,33.96,0000 0000 0000 0000 000000
2013-08-26 02:07:27,0.01,0.20,0.00,25.61,28.40,30.29,5.88,29.88,1009.86,2046.98,3392.94,3300.00,3565.62,350.29,319.26,33.96,0000 0000 0000 0000 000000
2013-08-26 02:08:27,0.02,0.20,0.00,25.58,28.40,30.29,5.83,29.88,1009.87,2046.97,3392.96,3300.00,3565.54,349.40,318.29,33.97,0000 0000 0000 0000 000000
2013-08-26 02:09:27,-0.01,0.20,0.00,25.50,28.40,30.30,5.93,29.92,1009.85,2046.97,3392.96,3300.00,3565.60,350.47,319.71,33.97,0000 0000 0000 0000 000000
2013-08-26 02:10:28,0.01,0.20,0.00,25.45,28.40,30.33,5.83,29.25,1009.84,2046.94,3392.96,3300.00,3565.34,351.03,319.76,33.98,0000 0000 0000 0000 000000
2013-08-26 02:11:28,0.02,0.20,0.00,25.46,28.40,30.32,5.78,29.71,1009.85,2046.92,3392.94,3300.00,3565.30,350.24,318.98,33.99,0000 0000 0000 0000 000000
2013-08-26 02:12:28,-0.02,0.20,0.00,25.48,28.40,30.31,5.87,29.71,1009.80,2046.95,3392.96,3300.00,3565.52,349.26,318.45,33.99,0000 0000 0000 0000 000000
2013-08-26 02:13:29,-0.01,0.20,0.00,25.56,28.40,30.31,6.05,29.83,1009.81,2046.97,3392.81,3300.00,3565.52,350.13,319.17,34.00,0000 0000 0000 0000 000000
2013-08-26 02:14:29,0.05,0.21,0.00,25.57,28.40,30.36,5.93,29.96,1009.82,2046.95,3392.63,3300.00,3565.42,350.19,319.21,34.00,0000 0000 0000 0000 000000
2013-08-26 02:15:29,-0.00,0.21,0.00,25.63,28.40,30.35,5.87,29.46,1009.90,2046.95,3392.67,3299.99,3565.33,350.55,319.48,34.01,0000 0000 0000 0000 000000
2013-08-26 02:16:30,0.00,0.21,0.00,25.66,28.41,30.36,5.85,29.67,1009.93,2046.95,3392.67,3299.98,3565.19,350.38,319.32,34.01,0000 0000 0000 0000 000000
2013-08-26 02:17:30,0.03,0.21,0.00,25.62,28.42,30.35,5.87,29.96,1009.92,2046.96,3392.45,3299.97,3565.10,349.90,318.92,34.02,0000 0000 0000 0000 000000
2013-08-26 02:18:30,0.03,0.21,0.00,25.63,28.42,30.33,5.77,30.00,1009.88,2046.95,3392.48,3299.97,3565.11,350.03,319.01,34.03,0000 0000 0000 0000 000000
2013-08-26 02:19:30,0.01,0.21,0.00,25.66,28.42,30.34,5.92,29.83,1009.90,2046.97,3392.55,3299.96,3565.10,350.31,319.27,34.03,0000 0000 0000 0000 000000
2013-08-26 02:20:31,0.01,0.21,0.00,25.65,28.42,30.33,5.83,29.63,1009.88,2046.98,3392.46,3299.97,3565.09,349.83,319.10,34.04,0000 0000 0000 0000 000000
2013-08-26 02:21:31,0.01,0.21,0.00,25.62,28.42,30.35,5.82,29.63,1009.87,2046.96,3392.32,3299.94,3565.07,349.73,318.46,34.04,0000 0000 0000 0000 000000
2013-08-26 02:22:31,0.01,0.21,0.00,25.61,28.42,30.33,5.93,29.75,1009.88,2046.92,3392.18,3299.90,3565.04,350.65,319.14,34.05,0000 0000 0000 0000 000000
2013-08-26 02:23:31,-0.00,0.21,0.00,25.61,28.42,30.32,5.90,29.79,1009.89,2046.92,3392.13,3299.87,3565.03,350.01,319.02,34.06,0000 0000 0000 0000 000000
2013-08-26 02:24:32,0.02,0.21,0.00,25.65,28.42,30.32,5.91,29.75,1009.93,2046.92,3392.07,3299.75,3565.01,350.14,319.05,34.06,0000 0000 0000 0000 000000
2013-08-26 02:25:32,0.03,0.21,0.00,25.65,28.42,30.35,5.70,29.79,1010.06,2046.89,3392.03,3299.56,3565.00,350.52,319.49,34.07,0000 0000 0000 0000 000000
2013-08-26 02:26:32,0.01,0.21,0.00,25.61,28.43,30.35,5.82,29.75,1010.13,2046.83,3392.00,3299.37,3565.00,349.85,318.64,34.07,0000 0000 0000 0000 000000
2013-08-26 02:27:33,0.01,0.21,0.00,25.61,28.44,30.39,5.88,30.04,1010.10,2046.87,3392.00,3299.28,3565.00,349.44,318.18,34.08,0000 0000 0000 0000 000000
2013-08-26 02:28:33,0.02,0.21,0.00,25.63,28.44,30.38,5.81,29.96,1010.07,2046.75,3392.00,3299.19,3565.00,349.13,318.48,34.09,0000 0000 0000 0000 000000
2013-08-26 02:29:33,-0.04,0.21,0.00,25.63,28.45,30.38,5.83,29.96,1010.08,2046.72,3392.00,3299.13,3565.00,350.06,318.91,34.09,0000 0000 0000 0000 000000
2013-08-26 02:30:33,-0.01,0.21,0.00,25.60,28.45,30.38,5.82,29.63,1010.06,2046.70,3392.00,3299.13,3565.00,350.49,319.53,34.10,0000 0000 0000 0000 000000
2013-08-26 02:31:34,-0.05,0.21,0.00,25.62,28.45,30.37,5.81,29.92,1009.99,2046.70,3392.01,3299.13,3565.00,348.22,317.41,34.10,0000 0000 0000 0000 000000
2013-08-26 02:32:34,-0.01,0.21,0.00,25.62,28.45,30.37,5.94,30.21,1009.91,2046.57,3392.00,3299.08,3564.99,350.38,319.36,34.11,0000 0000 0000 0000 000000
2013-08-26 02:33:34,-0.07,0.21,0.00,25.57,28.45,30.40,5.85,29.92,1009.90,2046.48,3392.00,3299.08,3564.98,349.71,318.80,34.11,0000 0000 0000 0000 000000
2013-08-26 02:34:34,-0.06,0.20,0.00,25.55,28.45,30.40,5.97,30.00,1009.91,2046.50,3392.00,3299.04,3564.98,350.65,319.67,34.12,0000 0000 0000 0000 000000
2013-08-26 02:35:34,0.03,0.21,0.00,25.60,28.45,30.40,5.93,29.63,1009.95,2046.48,3392.00,3299.03,3564.98,351.13,320.08,34.13,0000 0000 0000 0000 000000
2013-08-26 02:36:35,-0.03,0.20,0.00,25.66,28.45,30.37,5.92,29.88,1009.88,2046.37,3392.00,3299.02,3564.97,349.86,319.05,34.13,0000 0000 0000 0000 000000